Showing default

PODSAT, 43229

Orbit data source: Space-Track

PODSAT, 43229 is a payload satellite owned by DARPA (US) that was launched on Tue, 06 Mar 2018 UTC via an FALCON 9 launch vehicle from the Air Force Eastern Test Range (AFETR). Payloads include a variety of satellites, spacecraft, and rockets equipped with specific instruments for various scientific and technological missions. These include communications satellites like Starlink; space stations such as the ISS; scientific satellites like the Hubble; Earth observation satellites from companies like Planet Labs, Umbra, and HawkEye 360; GPS; miniature CubeSats for education and research; and military/defense satellites.

Loading next visibility...
PODSAT details
Identifier
43229, 2018-023B
Orbit
Active
Last TLE update3 days ago
Origin
Flag of USDARPA (US)
ManufacturerNovaWurks
MissionOperational Defense Technology
Bus & MotorSIMPL, Unknown motor
Mass~90 kg wet, ~90 kg dry
Launch date (UTC)
2018-03-06 (7 years ago)
Launch vehicle
FALCON 9
Launch site
Air Force Eastern Test Range (AFETR)
Object type
Payload
Rocket body
Debris
Shape & HBRBox, 0.3 m
Radar Cross Section0.135 m², Medium (>0.1 m² and < 1m²)

Expand to show TLE details & history

TLE from 3 days ago
0 PODSAT
1 43229U 18023B   24358.60517370  .00097852 -35463-6  90700-3 0  9993
2 43229  26.8282 182.8528 3966540  12.2672 355.1302  7.63811003148907
Epoch: 2024-12-23T14:31Z
Definitive object data (Epoch: 2024-12-23T14:31:27.007Z)
Latitude-0.00003°
Longitude-127.63502°
Altitude234.605 km
Speed9.163 km/s
True Right ascension12h 11m 24s
True Declination0° 00' 00"
Sunlit
Object was in daylight at TLE epoch
Visualization TLE readout
Latitude22.3213°
Longitude-79.38801°
Altitude554.36 km
Speed8.856 km/s
Apparent Right ascension18h 28m 08s
Apparent Declination-13° 21' 34"
Sunlit
Object is in daylight
Visualization observer readout
Local Sidereal Time11:09:06
Azimuth87.884° E
Elevation-23.612°
Doppler factor1
Orbital elements
Apogee altitude8,838.258 km
Perigee altitude195.253 km
Semi-major axis10,894.892 km
Eccentricity0.396654
Inclination26.8282°
RAAN182.8528°
Arg. of periapsis12.2672°
True anomaly347.77269°
Mean anomaly355.1302°
Eccentric anomaly351.9461°
Mean motion1.90857 °/min
BSTAR0.000907
Orbital period188.62 mins
Loading maneuver chart data...
Loading historical data...
Loading historical data...
Loading historical data...
Loading historical data...
Loading historical data...
Loading historical data...
Loading historical data...
Other satellites on launch #23 in the year 2018 (2018-03-06 UTC)

PODSAT Visibility forecast

Observer location: undefined°, undefined

Span
Click to sort rows by Start time (UTC) header in descending order
Start Az.
Max El. time (UTC)
Max El. Az.
Max El.
End time (UTC)
End Az.
22 mins2024-12-26 18:08:42.027Z221.16° SW2024-12-26 18:13:42.027Z159.225° S31.186°2024-12-26 18:30:42.027Z104.697° ESE
56 mins2024-12-26 21:25:42.027Z250.629° W2024-12-26 21:37:42.027Z191.363° SSW34.502°2024-12-26 22:21:42.027Z133.283° SE
68 mins2024-12-27 00:51:42.027Z250.175° W2024-12-27 01:15:42.027Z211.572° SW22.498°2024-12-27 01:59:42.027Z172.168° S
|